KLM604 KLAX-EHAM

Flight info

Callsign KLM604
Flight time N/A
Altitude 37000
Route ORCKA5 LAS Q70 BLIPP Q842 WINEN DCT HELPR DCT CKW DCT KD78U DCT KD87W DCT KP12A DCT YRL DCT KEMSA/N0479F390 DCT 5830N07000W DCT LOPVI/M083F390 DCT SAVRY DCT 60N050W 60N040W 60N030W 59N020W DCT GOMUP/N0466F390 DCT GINGA/N0475F410 DCT TLA DCT ERKIT N110 DOLAS L603 LAMSO
Aircraft B772/H-SDE2E3FGHIJ5LORVWXY/LB1D1

Departure

Time N/A
Airport Los Angeles International Airport (KLAX)

Arrival

Time 2026-04-28 16:35
Airport Amsterdam Airport Schiphol (EHAM)
Time Latitude Longitude Altitude Speed Heading
2026-04-28 16:22 52.51250 4.02539 10067 ft 261 kts 111°
2026-04-28 16:23 52.50557 4.05271 9960 ft 262 kts 111°
2026-04-28 16:23 52.49857 4.08035 9830 ft 260 kts 110°
2026-04-28 16:23 52.49171 4.10769 9727 ft 258 kts 110°
2026-04-28 16:23 52.48457 4.13466 9348 ft 260 kts 118°
2026-04-28 16:24 52.47662 4.15012 8848 ft 274 kts 137°
2026-04-28 16:24 52.46107 4.16875 8291 ft 278 kts 142°
2026-04-28 16:24 52.44547 4.18727 8023 ft 274 kts 141°
2026-04-28 16:24 52.43038 4.20573 7752 ft 270 kts 140°
2026-04-28 16:25 52.41532 4.22449 7324 ft 272 kts 140°
2026-04-28 16:25 52.40040 4.24321 7075 ft 267 kts 139°
2026-04-28 16:25 52.38580 4.26164 6873 ft 261 kts 138°
2026-04-28 16:25 52.37134 4.28000 6298 ft 270 kts 139°
2026-04-28 16:26 52.35659 4.29875 6029 ft 265 kts 139°
2026-04-28 16:26 52.34217 4.31708 5716 ft 263 kts 139°
2026-04-28 16:26 52.32769 4.33551 5359 ft 262 kts 139°
2026-04-28 16:26 52.31332 4.35380 5074 ft 259 kts 139°
2026-04-28 16:27 52.29930 4.37159 4762 ft 246 kts 139°
2026-04-28 16:27 52.28637 4.38791 4490 ft 223 kts 137°
2026-04-28 16:27 52.26379 4.41651 4102 ft 199 kts 136°
2026-04-28 16:28 52.25237 4.42942 3891 ft 200 kts 141°
2026-04-28 16:28 52.24036 4.44165 3695 ft 208 kts 141°
2026-04-28 16:28 52.22806 4.45418 3484 ft 207 kts 141°
2026-04-28 16:28 52.21780 4.46820 3234 ft 174 kts 114°
2026-04-28 16:29 52.21146 4.49816 2973 ft 118 kts 102°
2026-04-28 16:29 52.20603 4.52289 2731 ft 112 kts 91°
2026-04-28 16:30 52.20909 4.53356 2635 ft 114 kts 45°
2026-04-28 16:30 52.21438 4.54320 2522 ft 115 kts 63°
2026-04-28 16:30 52.21812 4.55368 2422 ft 110 kts 59°
2026-04-28 16:30 52.22229 4.56409 2328 ft 110 kts 59°
2026-04-28 16:31 52.22646 4.57469 2178 ft 110 kts 60°
2026-04-28 16:31 52.23050 4.58507 2069 ft 105 kts 61°
2026-04-28 16:31 52.23436 4.59514 1914 ft 105 kts 58°
2026-04-28 16:31 52.23822 4.60514 1809 ft 106 kts 59°
2026-04-28 16:32 52.24217 4.61536 1687 ft 105 kts 58°
2026-04-28 16:32 52.24989 4.63536 1423 ft 105 kts 59°
2026-04-28 16:32 52.25381 4.64557 1276 ft 106 kts 58°
2026-04-28 16:33 52.25770 4.65564 1137 ft 106 kts 59°
2026-04-28 16:33 52.26032 4.66247 1040 ft 107 kts 59°
2026-04-28 16:33 52.26555 4.67609 838 ft 105 kts 57°
2026-04-28 16:33 52.26952 4.68638 727 ft 111 kts 59°
2026-04-28 16:34 52.27356 4.69703 590 ft 112 kts 55°
2026-04-28 16:34 52.27776 4.70783 454 ft 113 kts 56°
2026-04-28 16:34 52.28213 4.71906 311 ft 119 kts 57°
2026-04-28 16:34 52.28641 4.73037 147 ft 114 kts 57°
2026-04-28 16:35 52.29067 4.74132 11 ft 108 kts 57°
2026-04-28 16:35 52.29406 4.75012 1 ft 67 kts 58°
2026-04-28 16:35 52.29598 4.75509 2 ft 44 kts 57°
2026-04-28 16:35 52.29793 4.75810 1 ft 36 kts 27°
2026-04-28 16:36 52.29988 4.75994 2 ft 27 kts 44°
2026-04-28 16:36 52.30040 4.76112 2 ft 0 kts 58°
2026-04-28 16:36 52.30081 4.76220 2 ft 22 kts 58°
2026-04-28 16:37 52.30164 4.76435 3 ft 22 kts 58°
2026-04-28 16:37 52.30247 4.76650 2 ft 22 kts 56°
2026-04-28 16:37 52.30330 4.76865 3 ft 22 kts 58°
2026-04-28 16:38 52.30494 4.77296 2 ft 22 kts 58°
2026-04-28 16:38 52.30578 4.77510 2 ft 22 kts 52°
2026-04-28 16:38 52.30719 4.77594 2 ft 22 kts
2026-04-28 16:38 52.30874 4.77608 2 ft 22 kts
2026-04-28 16:39 52.31052 4.77623 2 ft 28 kts
2026-04-28 16:39 52.31245 4.77641 2 ft 28 kts
2026-04-28 16:39 52.31440 4.77640 2 ft 28 kts 344°
2026-04-28 16:39 52.31570 4.77421 2 ft 25 kts 290°
2026-04-28 16:40 52.31572 4.77134 2 ft 25 kts 267°
2026-04-28 16:40 52.31561 4.76848 2 ft 25 kts 266°
2026-04-28 16:40 52.31545 4.76565 2 ft 25 kts 246°
2026-04-28 16:40 52.31402 4.76417 2 ft 23 kts 180°
2026-04-28 16:41 52.31248 4.76437 2 ft 17 kts 201°
2026-04-28 16:41 52.31233 4.76347 2 ft 7 kts 269°
2026-04-28 16:41 52.31232 4.76301 2 ft 2 kts 268°